Theta_e
281 281 282 282 282 282 283 283 283 284 284 284 285 285 285 286 286 286 287 287 287 287 287 287 288 288 288 288 288 288 287 287 287 286 286 285 285 285 284 284 283 283 283 282 282 282 282 282 282 282 281 281 281 281 281 281 280 280 281 281 281 282 282 283 283 284 284 284 283 281 281 283 282 282 282 281 280 281 279 277 277 277 277 277 276
280 280 281 281 282 282 282 282 282 282 283 283 283 283 284 284 285 285 285 286 286 286 286 286 287 287 287 286 286 286 286 286 286 286 285 285 284 284 284 284 283 283 283 282 282 282 282 282 281 281 281 281 281 281 280 280 280 280 280 280 280 281 281 281 282 283 283 283 282 280 280 282 282 281 281 281 280 280 278 277 277 277 276 276 275
280 280 280 280 281 281 281 281 281 281 281 281 281 282 282 283 284 284 284 285 285 285 285 285 285 286 286 286 286 286 286 285 285 285 285 284 284 284 284 284 283 283 282 282 282 282 282 281 281 281 281 280 280 280 280 280 279 279 279 279 279 279 280 280 281 281 282 282 282 280 279 280 281 280 280 280 279 278 277 277 276 276 275 275 275
279 279 279 280 280 280 280 280 280 280 280 280 280 280 281 281 282 283 283 283 284 284 284 285 285 285 285 285 285 285 285 285 285 285 285 284 284 284 284 284 283 283 283 283 282 282 282 281 281 281 280 280 280 279 279 279 279 279 279 278 279 279 279 279 280 280 281 281 282 281 279 279 279 278 278 278 277 277 276 276 276 275 275 275 274
279 278 279 279 279 279 279 279 279 279 279 279 279 279 280 280 280 281 282 282 283 283 283 284 284 284 284 284 284 284 284 284 284 284 284 284 284 284 283 284 283 283 283 283 282 282 282 282 281 281 280 280 279 279 279 279 278 278 278 278 278 278 278 278 279 279 280 280 280 280 278 278 278 277 276 277 276 275 275 275 274 274 274 274 274
278 278 278 278 278 278 278 278 278 278 278 278 278 278 279 279 279 280 280 281 281 282 282 282 283 283 283 284 284 284 284 284 284 284 284 283 283 283 283 283 283 283 283 282 282 282 282 282 281 281 280 280 279 279 279 278 278 278 278 278 278 278 278 278 278 278 278 279 279 279 278 277 277 276 275 276 275 275 274 274 273 273 273 273 273
278 277 277 277 277 277 277 277 277 276 277 277 277 277 277 278 278 279 279 279 280 280 281 281 281 282 282 283 283 283 283 283 283 283 283 283 283 283 282 282 282 282 282 282 282 282 282 281 281 281 281 280 279 279 279 278 278 278 278 277 277 277 277 277 277 277 278 278 278 278 277 277 276 276 275 274 274 274 274 273 273 272 272 272 272
277 277 277 276 276 276 276 276 276 276 276 276 276 277 277 277 277 277 278 278 278 279 279 280 280 281 281 281 282 282 282 282 283 282 282 282 282 282 282 282 282 282 282 282 282 282 281 281 281 281 280 280 280 279 279 279 278 278 277 277 277 277 277 277 277 277 277 277 278 278 277 276 276 275 274 273 273 273 273 273 273 273 272 272 272
276 276 276 276 276 275 275 275 275 275 275 275 275 275 276 276 276 276 277 277 277 277 278 278 279 279 280 280 281 281 281 281 281 281 281 281 281 281 281 281 281 281 281 281 281 281 281 281 281 280 280 280 280 280 279 279 279 278 277 277 277 276 276 276 277 277 277 277 277 277 277 277 276 275 274 273 273 273 273 273 273 273 272 272 272
276 276 275 275 275 275 274 274 274 274 274 274 274 274 274 275 275 275 276 276 276 276 277 277 277 278 278 279 279 280 280 280 279 279 279 279 280 280 280 280 280 280 280 280 280 280 280 280 280 280 280 279 279 279 279 279 279 278 278 278 277 276 276 276 276 277 277 277 277 277 277 277 276 275 274 274 273 273 273 272 272 273 273 272 272
275 275 275 275 274 274 274 274 274 274 273 273 273 273 273 274 274 274 275 275 275 275 275 276 276 277 277 277 278 279 279 279 279 279 279 279 279 279 279 279 279 279 279 279 279 279 279 279 279 279 279 279 279 279 279 278 278 278 278 278 278 277 276 276 276 276 276 277 277 277 277 276 276 276 275 274 273 273 272 272 272 272 272 272 273
275 275 274 274 274 273 273 273 273 273 272 272 272 272 272 273 273 273 274 274 274 274 274 275 275 275 276 276 277 277 278 278 278 279 279 280 280 280 279 279 279 278 278 278 278 278 278 278 278 278 278 278 278 278 278 278 278 278 278 277 277 277 277 277 276 276 276 276 276 276 276 276 276 275 275 274 273 272 272 272 272 272 272 272 273
275 274 274 274 273 273 272 272 272 272 272 271 271 271 271 272 272 272 273 273 273 273 273 274 274 274 275 275 275 276 276 277 278 278 279 279 280 280 280 279 279 278 278 278 277 278 278 278 278 278 278 278 278 278 277 277 277 277 277 277 277 277 277 276 276 276 276 276 276 276 276 276 275 275 274 274 273 272 272 272 272 272 272 273 273
274 274 274 273 273 272 271 271 271 271 271 271 270 270 271 271 271 271 271 272 272 272 273 273 273 274 274 274 275 275 276 277 277 278 277 277 278 279 279 279 278 278 278 277 277 277 277 277 277 277 277 277 277 277 277 277 277 276 276 276 276 276 276 276 276 276 276 276 275 275 275 275 275 275 274 274 273 273 272 272 272 272 272 272 272
274 273 273 272 272 271 271 270 270 270 270 270 270 270 270 270 270 270 270 271 271 271 272 272 272 273 273 273 274 274 275 276 276 276 276 276 276 277 277 278 277 277 277 277 276 276 276 276 276 276 276 276 276 276 276 276 276 276 276 276 276 276 275 275 276 276 276 276 275 275 275 275 275 275 274 274 274 273 273 273 272 272 272 271 271
274 273 272 272 271 271 270 270 269 269 269 269 269 269 269 269 269 269 269 270 270 270 270 271 271 271 272 272 273 273 274 275 275 275 275 274 275 275 275 276 276 275 275 275 275 275 275 275 275 275 276 276 276 276 276 276 275 275 275 275 275 275 275 275 275 275 276 276 275 275 275 275 275 274 274 274 273 273 273 272 272 271 271 270 270
273 273 272 271 271 270 269 269 269 268 268 268 268 268 268 268 268 269 268 269 269 269 269 270 270 270 271 271 271 272 273 273 274 274 274 273 273 273 273 273 274 274 274 274 274 274 274 274 274 275 275 275 275 275 275 275 275 274 275 275 275 275 275 275 275 275 275 275 275 275 275 275 275 274 274 274 273 273 272 271 271 270 270 270 270
273 272 272 271 270 269 269 268 268 268 267 267 267 267 267 268 268 268 267 268 268 269 269 269 269 269 270 270 270 271 271 272 272 273 273 272 272 272 272 272 272 272 272 272 272 272 272 273 273 273 274 274 274 274 274 275 275 274 274 274 274 274 274 274 274 274 274 275 275 275 275 275 275 274 274 274 273 273 272 272 271 270 270 270 271
272 272 271 270 269 268 268 267 267 267 266 266 266 266 267 267 267 267 267 267 268 268 268 268 268 268 268 269 269 269 270 270 271 271 271 272 271 271 271 271 271 271 271 271 271 271 271 271 272 272 272 272 273 273 274 274 274 274 274 273 273 273 273 273 273 273 273 274 274 274 275 275 275 274 274 274 274 273 273 272 272 270 270 271 271
271 271 270 269 269 268 267 267 266 265 265 265 265 266 266 266 266 266 266 267 267 267 267 267 267 267 268 268 268 268 269 269 269 269 270 270 271 270 270 270 270 270 270 270 270 270 270 270 270 270 271 271 272 272 273 274 274 274 274 273 273 273 273 273 272 273 273 273 273 273 273 273 273 273 273 273 273 274 273 272 272 271 270 271 271
271 270 269 269 268 267 266 266 265 264 264 265 265 266 266 266 266 265 265 266 266 266 267 267 267 267 267 267 268 268 268 268 269 269 269 269 270 270 270 269 269 269 269 269 269 270 270 270 270 269 269 270 270 271 272 272 273 273 273 273 273 273 273 273 272 272 272 272 272 272 272 272 272 272 272 272 272 272 272 272 272 271 271 271 271
270 269 269 268 268 267 266 265 264 264 264 264 265 265 265 265 265 265 265 265 265 265 266 266 266 266 266 267 267 267 267 267 267 267 267 267 269 269 269 269 269 269 269 269 269 269 269 269 269 268 268 268 269 270 271 271 272 272 272 272 273 273 273 273 272 272 272 272 272 271 271 271 271 271 271 271 270 271 271 271 271 271 271 271 271
269 268 268 267 267 266 265 264 263 263 263 264 264 264 265 265 265 265 265 265 265 265 265 265 265 265 266 266 266 266 266 266 266 266 265 266 267 269 269 269 269 269 269 269 269 269 269 268 268 267 267 268 269 270 270 271 271 271 271 271 271 272 272 272 271 271 271 271 271 271 271 271 270 270 270 270 270 270 270 270 270 270 270 270 270
268 267 267 267 266 265 265 264 263 263 263 263 263 263 264 264 264 264 264 264 265 265 265 265 265 265 265 266 265 265 265 265 265 265 265 265 266 268 268 268 268 268 268 268 268 268 268 267 267 267 268 268 269 269 270 270 270 270 270 270 270 270 270 270 270 270 270 270 270 270 270 270 269 269 269 269 269 268 268 268 268 268 268 268 269
267 266 266 266 265 265 264 263 263 263 262 262 262 262 263 263 263 264 263 263 264 265 265 265 265 265 265 265 265 265 265 265 265 265 265 265 266 266 267 267 267 266 266 266 266 266 266 267 267 267 268 268 268 269 269 269 269 268 268 268 268 268 268 268 268 268 268 269 269 269 269 269 268 268 268 268 268 267 267 267 267 267 267 267 267
266 266 265 265 265 264 263 262 262 262 262 262 262 262 262 262 262 263 263 263 263 264 264 264 264 265 265 265 266 265 265 265 265 265 265 265 265 266 266 266 266 266 266 266 266 266 266 266 267 267 267 267 267 267 267 267 267 267 267 267 266 266 266 266 267 267 268 268 268 268 268 268 268 267 267 267 267 267 267 267 267 267 267 266 266
265 265 264 264 264 263 262 262 262 262 262 262 262 262 262 262 262 262 262 263 263 263 264 264 264 265 265 266 266 265 265 265 265 265 265 265 266 266 266 266 266 266 266 266 266 266 266 266 266 266 266 266 266 266 266 266 266 265 265 265 265 265 265 265 265 266 266 266 267 266 266 266 266 266 265 265 266 266 266 266 266 266 266 266 266
265 264 264 264 263 263 262 262 261 261 261 261 261 261 261 261 261 262 262 262 263 263 264 264 264 265 265 266 265 265 265 265 265 265 265 266 266 266 266 266 266 266 266 266 265 265 265 265 265 265 265 265 265 265 265 265 265 265 264 264 264 264 264 264 264 264 264 264 265 265 264 264 264 264 264 264 264 264 264 264 264 265 265 265 265
264 264 263 263 263 262 261 261 261 261 261 261 261 261 261 261 261 261 261 262 262 263 263 264 264 265 265 265 265 265 265 265 265 265 265 266 266 266 266 266 266 266 265 265 265 265 265 264 265 265 265 265 265 265 265 265 264 264 264 264 263 263 263 263 263 263 263 263 263 263 263 263 263 263 263 263 263 263 263 262 262 263 263 263 264
264 263 263 262 262 261 261 261 260 260 260 260 260 261 261 261 261 261 261 262 262 262 263 264 265 265 265 264 264 264 265 265 264 265 265 266 266 266 265 265 265 265 265 265 265 265 265 265 265 265 265 265 265 265 265 264 264 264 263 263 262 262 262 262 262 262 261 261 262 262 262 262 262 262 262 262 262 262 261 261 261 261 262 262 263
263 263 263 262 262 261 261 261 260 260 259 259 259 260 260 261 261 261 261 261 262 263 264 265 265 265 264 264 264 264 263 263 263 264 265 265 265 264 264 264 264 264 264 264 265 265 265 265 264 264 264 264 264 264 263 263 263 263 262 261 261 261 261 260 260 260 260 260 260 260 260 260 261 261 261 261 261 261 260 260 260 260 261 261 262
263 263 263 262 261 261 260 260 260 259 259 259 259 259 260 261 262 262 261 261 262 262 263 264 264 264 263 263 263 263 263 263 263 263 263 263 263 263 263 264 264 264 264 263 263 263 263 263 263 263 262 262 262 262 262 262 262 261 261 261 261 260 259 259 259 259 259 259 259 259 259 259 259 259 259 259 259 259 259 259 259 259 260 260 260
263 262 262 262 261 261 260 260 260 259 259 259 259 259 259 260 261 261 261 261 261 262 262 262 262 263 262 262 262 262 262 262 262 262 262 262 262 263 263 263 263 263 262 262 262 262 262 261 262 261 261 261 261 261 260 260 260 260 260 260 260 259 258 258 258 258 258 258 258 258 258 258 258 258 258 258 258 258 258 258 258 258 258 258 259
262 262 262 261 261 261 260 260 260 259 259 258 258 258 258 258 259 259 260 261 261 261 261 261 261 261 261 261 261 261 261 260 260 260 261 262 262 262 262 261 261 261 261 260 260 260 260 260 260 260 260 260 259 259 259 259 259 259 259 258 258 257 257 257 257 256 256 256 256 256 256 256 256 256 256 256 256 257 257 257 257 257 257 257 257
262 262 262 262 261 261 260 260 260 259 258 258 258 258 257 258 257 257 258 259 259 260 260 260 260 260 260 260 260 260 260 260 259 259 260 261 261 260 260 260 259 259 259 258 258 258 258 259 259 258 258 258 258 258 258 258 257 258 258 257 257 256 256 256 256 255 255 255 255 255 255 255 255 255 255 255 255 255 255 255 255 255 255 255 255
262 262 262 261 261 260 260 260 259 259 258 258 258 258 257 257 257 257 257 257 257 258 259 259 260 259 259 259 259 259 259 259 259 258 259 259 259 258 258 258 258 258 257 257 256 256 257 257 257 257 257 257 256 256 256 256 256 256 256 256 256 255 255 255 255 254 254 254 254 254 254 254 253 253 254 254 254 254 254 254 254 254 254 254 254
262 261 261 261 261 260 260 260 259 259 258 258 258 257 257 257 257 257 256 256 256 257 257 258 258 258 258 258 258 258 258 258 258 257 257 258 257 257 257 257 257 257 257 256 256 256 256 256 255 255 255 255 255 255 255 255 255 255 255 254 254 254 254 254 254 253 253 253 253 252 252 252 252 252 252 253 253 253 253 253 253 253 253 252 252
261 261 261 261 260 260 259 259 259 259 258 258 257 257 257 257 256 256 256 256 256 256 257 256 256 257 257 257 257 257 257 257 257 256 256 256 256 255 255 255 255 255 256 255 255 255 255 255 254 254 254 254 254 254 254 254 254 254 254 254 253 253 253 253 252 252 252 252 252 252 252 252 251 251 252 252 252 252 252 252 252 252 252 252 252
261 261 261 261 260 259 259 259 258 258 258 258 257 257 257 256 256 256 256 256 256 256 256 256 256 256 256 256 256 256 256 256 256 256 255 255 254 254 254 254 255 255 255 254 254 254 254 254 254 254 254 254 253 253 254 254 253 253 253 253 253 253 252 252 252 252 252 252 251 251 251 251 251 250 251 251 251 251 251 251 251 251 251 251 251
261 261 261 260 260 259 258 258 258 258 257 257 257 257 257 256 256 256 256 256 256 256 256 256 256 256 256 256 255 255 255 255 255 255 254 254 254 253 253 254 254 254 254 254 253 253 253 253 253 253 253 253 253 253 253 253 253 252 252 252 253 252 252 252 251 251 251 251 251 250 250 250 250 250 250 250 250 250 250 250 250 250 250 250 250
261 260 260 260 259 259 258 258 258 258 257 257 257 257 257 256 256 256 255 255 255 256 256 256 256 256 256 256 255 254 254 255 255 254 253 253 253 253 253 253 253 253 253 253 253 253 253 253 253 253 253 253 252 252 252 252 252 252 252 252 252 252 251 251 250 250 250 250 250 250 250 249 249 250 250 250 250 250 250 250 250 250 250 250 250
261 260 260 259 259 258 258 257 258 257 257 257 257 257 257 256 256 255 255 255 255 255 255 256 256 256 256 255 254 254 254 254 254 253 253 253 252 252 252 253 253 253 253 253 253 253 252 252 253 252 252 252 252 252 252 252 251 251 251 251 251 251 251 250 250 250 250 249 249 249 249 249 249 249 249 249 249 249 249 249 249 249 249 250 250
260 260 260 259 258 258 257 257 257 257 257 257 257 257 256 256 256 255 255 255 255 255 255 255 255 255 255 255 254 253 254 253 253 252 252 252 252 252 252 252 252 252 252 252 252 252 252 252 252 252 252 252 252 252 251 251 251 251 251 250 250 250 250 250 249 249 249 249 249 249 249 249 249 249 249 249 249 249 249 249 249 249 249 249 249
260 259 259 258 258 257 257 257 257 257 257 257 256 256 256 256 256 255 255 255 255 255 255 255 255 254 254 254 254 253 253 253 252 252 252 252 252 252 252 252 252 252 252 252 252 252 252 252 252 252 252 252 251 251 251 251 251 250 250 250 250 249 249 249 249 249 249 248 248 248 248 248 248 248 248 248 248 248 248 249 249 249 249 249 249
259 258 258 257 257 257 257 256 256 256 257 256 256 256 256 255 255 255 255 255 254 254 254 254 254 254 254 254 253 253 253 253 252 252 252 252 251 251 251 251 252 252 252 252 252 252 252 252 252 252 251 251 251 251 250 250 250 250 250 249 249 249 249 248 248 248 248 248 248 248 248 248 248 248 248 248 248 248 248 249 248 248 248 249 249
258 258 257 257 257 256 256 256 256 256 256 256 255 255 255 255 255 255 255 255 254 254 254 254 254 254 254 254 253 253 253 253 253 253 252 252 251 251 251 251 251 251 251 251 252 252 252 252 251 251 251 251 251 250 250 250 250 249 249 249 249 248 248 248 248 248 248 248 248 248 248 248 248 248 248 248 248 248 248 248 248 248 248 248 248
257 257 257 256 256 256 256 256 256 256 256 255 255 255 255 254 254 254 254 255 255 255 254 254 254 254 254 254 254 254 253 253 252 252 252 252 252 251 251 251 251 251 251 251 251 251 251 251 251 251 251 250 250 250 250 249 249 249 249 248 248 248 248 248 248 248 248 248 248 248 248 248 248 248 248 248 248 248 248 247 247 247 247 247 247
256 256 256 256 256 256 255 255 255 255 255 255 255 254 254 254 254 254 254 254 254 254 254 254 254 254 254 254 254 254 253 253 252 252 252 252 252 251 251 251 251 251 251 251 251 251 251 251 251 251 250 250 250 249 249 249 249 248 248 248 248 248 248 248 248 248 248 248 248 248 248 248 247 247 247 247 247 247 247 247 247 247 247 247 247
256 256 256 255 255 255 255 255 255 255 255 254 254 254 254 254 253 253 253 254 254 254 254 254 254 254 253 254 254 254 253 253 252 252 252 252 251 251 251 251 250 250 251 251 251 251 251 251 251 250 250 250 249 249 249 249 248 248 248 248 248 248 248 248 248 248 248 248 248 247 247 247 247 247 247 247 247 247 247 247 247 247 247 247 247
255 255 255 255 254 254 254 254 254 254 254 254 254 254 253 253 253 253 253 253 253 253 253 253 254 254 254 254 254 254 253 253 252 252 252 252 251 251 251 250 250 250 250 250 251 251 251 250 250 250 250 249 249 249 248 248 248 248 248 248 248 248 248 248 248 248 247 247 247 247 247 247 247 247 247 247 247 246 246 246 246 246 246 246 246
254 254 254 254 253 253 253 253 253 253 254 254 254 253 253 253 253 253 253 253 253 253 253 253 253 254 254 254 253 253 253 253 252 252 252 252 251 251 251 250 250 250 250 250 251 251 251 250 250 250 249 249 249 249 248 248 248 247 247 247 248 248 248 247 247 247 247 247 247 247 247 247 247 247 247 247 246 246 246 246 246 246 246 246 246
Wind_Speed
24 24 22 21 22 22 21 21 20 19 17 15 12 10 8 7 7 8 10 11 13 17 19 20 22 24 25 27 28 29 30 31 32 33 33 33 31 31 30 28 27 27 24 23 27 30 30 30 31 30 28 27 26 24 24 25 25 25 22 21 23 22 21 22 17 15 17 16 12 13 19 23 26 29 32 32 33 34 32 31 32 33 34 32 30
22 22 21 20 21 20 19 19 19 19 18 17 17 15 13 10 8 7 7 8 9 12 14 16 18 20 22 23 24 26 27 28 29 31 32 32 32 32 31 29 29 27 24 24 26 30 33 34 34 33 31 32 31 29 27 27 28 28 25 21 22 22 21 21 20 17 16 17 14 13 18 23 24 27 30 32 33 33 32 32 33 34 35 30 26
21 21 20 19 19 18 18 17 18 18 17 17 18 18 16 14 12 9 7 6 6 7 9 11 14 16 18 19 21 23 25 26 27 28 30 31 31 31 31 31 31 28 27 27 27 28 32 34 35 34 33 33 34 33 31 30 30 30 29 26 22 22 22 21 21 19 18 19 18 15 18 24 25 25 28 31 31 30 30 32 33 33 32 29 24
20 21 20 19 18 17 17 17 17 17 16 16 17 17 16 15 14 12 10 8 6 6 7 8 9 11 13 15 17 20 22 23 25 27 29 30 30 30 30 32 32 31 31 31 30 30 32 34 34 34 34 34 34 33 31 31 31 30 31 29 25 23 22 22 22 21 19 19 20 17 16 20 24 23 24 28 27 26 28 29 30 31 31 31 28
20 21 20 19 18 17 16 16 16 16 15 14 15 16 15 15 14 13 12 11 9 7 6 6 7 7 9 10 12 15 18 21 24 26 28 29 30 30 30 31 32 33 33 33 33 33 34 34 34 33 33 34 34 32 31 31 31 31 32 31 27 24 22 21 22 21 20 19 18 17 14 15 18 18 21 26 24 23 25 25 27 29 29 31 31
19 20 19 19 18 17 16 15 15 15 15 14 14 15 15 14 13 13 12 11 10 9 7 6 5 5 6 8 10 11 13 16 20 23 25 26 28 29 29 30 31 32 33 33 33 34 34 35 35 34 34 34 34 33 32 31 32 32 33 32 29 26 23 22 22 20 20 20 18 17 14 13 15 14 19 25 24 22 22 21 24 28 29 29 30
18 18 18 18 17 16 15 14 14 15 15 14 14 14 14 13 13 12 11 11 10 9 8 7 6 5 5 6 8 10 12 13 15 18 21 24 26 27 28 28 30 30 31 32 33 33 34 34 35 35 34 34 34 34 32 32 32 32 33 33 31 29 26 23 21 20 19 19 18 18 15 14 16 14 16 21 22 22 23 21 20 24 27 28 26
17 17 17 17 16 16 15 14 14 14 15 15 15 15 14 13 13 13 12 11 10 9 9 8 7 7 6 5 6 8 10 11 12 14 17 20 23 25 25 26 27 27 28 30 31 32 32 33 34 34 33 33 33 33 33 32 32 32 33 33 31 31 28 22 19 19 19 18 18 18 15 15 16 14 14 17 18 19 22 22 19 19 22 27 27
16 16 16 16 16 16 15 14 14 13 14 14 15 15 15 14 14 13 12 11 10 9 9 8 8 7 7 6 6 6 7 8 10 11 14 16 18 20 21 23 24 25 25 26 27 29 30 31 32 32 32 33 33 33 33 32 32 32 33 32 31 32 29 22 19 19 18 17 17 17 16 16 17 16 15 18 19 19 18 19 19 16 16 22 27
15 15 16 16 16 15 15 14 14 13 13 14 14 15 15 15 15 14 12 12 10 9 9 8 7 7 6 6 6 6 6 6 7 8 10 11 12 14 16 18 21 22 23 23 24 26 27 28 29 29 30 31 31 32 32 32 32 32 32 32 31 32 30 24 19 19 18 17 17 17 17 17 18 18 18 18 19 19 19 20 21 19 15 14 18
15 15 15 15 15 15 14 14 14 14 14 14 14 14 15 15 15 14 13 12 10 10 9 8 7 7 6 6 6 6 6 6 6 6 7 8 9 10 11 12 15 17 19 20 21 22 23 25 26 26 27 28 28 29 30 30 31 31 31 31 31 31 31 28 23 19 17 17 17 17 17 17 18 18 18 17 17 19 22 24 25 21 16 13 13
15 15 15 14 14 15 15 15 15 14 14 14 14 14 15 15 15 14 13 12 10 10 9 8 7 7 6 5 5 5 5 5 5 5 6 6 6 7 8 9 10 11 13 16 16 17 18 20 22 23 24 24 25 26 27 28 29 29 30 30 30 31 31 31 28 23 20 19 17 16 18 17 16 18 19 18 18 21 24 27 26 21 17 16 17
14 15 16 15 14 14 14 15 15 14 14 14 14 14 15 15 14 14 13 12 11 10 9 8 7 7 6 5 4 3 3 3 4 4 3 4 5 5 6 8 8 8 9 11 12 13 15 16 17 19 20 21 22 23 24 24 25 26 28 28 30 30 30 31 32 29 28 26 22 19 20 18 17 20 23 23 23 23 25 25 23 19 18 19 20
14 15 16 16 15 13 13 14 14 14 14 14 14 14 14 14 14 14 13 12 11 10 9 8 8 7 6 5 4 3 2 3 5 3 2 2 5 5 6 7 8 8 8 8 9 11 12 12 13 15 16 17 19 20 20 21 22 23 24 26 28 28 29 29 29 27 28 30 29 26 25 24 23 24 26 26 26 26 26 25 23 21 22 22 21
16 16 15 15 14 13 13 14 14 14 14 14 15 15 14 15 15 13 11 11 10 9 9 8 7 7 6 5 4 3 1 3 5 4 2 3 4 3 4 4 5 6 6 6 7 8 9 10 11 11 12 13 14 15 16 18 19 20 21 23 25 26 27 29 28 26 25 26 28 29 28 27 26 25 25 25 25 26 27 27 27 26 26 22 19
16 15 14 13 13 12 13 13 13 14 13 12 14 15 14 15 15 13 12 11 9 8 8 8 7 6 5 4 4 4 3 2 4 5 3 2 4 2 0 0 1 2 3 3 5 5 6 7 8 9 10 10 10 12 13 14 17 18 19 21 22 22 23 25 26 26 25 23 23 25 26 27 26 25 24 24 24 25 24 23 22 21 21 17 15
16 17 16 14 12 11 11 11 13 15 14 12 13 12 12 14 14 12 12 12 9 8 8 7 7 6 5 5 4 5 4 3 2 6 5 2 3 2 2 2 2 2 2 2 1 2 3 4 5 6 8 8 9 9 10 11 14 16 17 18 19 18 17 20 22 22 22 22 22 22 22 23 23 23 22 22 23 24 23 21 17 15 16 16 15
17 18 16 13 11 10 9 11 15 18 17 15 15 13 11 12 12 11 12 11 10 9 7 6 6 5 5 5 5 5 5 4 2 3 6 3 3 3 2 2 1 0 0 0 1 1 1 1 2 4 4 6 7 8 8 10 12 14 15 15 16 15 12 14 18 20 20 20 21 21 20 20 20 21 22 22 23 24 26 24 19 17 18 18 16
20 19 16 15 13 12 11 13 16 18 18 18 17 16 13 11 11 11 10 9 8 7 6 5 5 5 5 5 5 5 5 4 4 2 3 4 3 3 2 1 1 1 1 2 2 2 3 3 2 2 2 3 4 5 5 7 9 11 13 13 14 14 11 12 16 19 20 20 21 21 21 21 19 19 21 21 22 25 28 29 25 21 20 20 18
21 20 19 18 17 13 12 14 16 18 18 18 17 16 13 10 10 11 9 8 7 6 5 6 6 6 6 6 6 6 6 6 6 6 4 3 3 2 2 2 3 2 2 3 3 3 4 5 4 5 5 4 4 4 5 7 8 9 11 12 12 11 11 12 15 18 19 20 21 22 23 24 23 22 22 22 22 24 25 28 30 27 23 21 21
22 21 19 18 17 15 13 15 17 17 17 15 14 14 12 10 10 9 8 7 6 6 6 6 6 7 7 8 8 8 9 8 8 8 6 4 3 2 3 3 3 3 3 3 4 3 4 3 4 6 8 7 6 6 7 8 9 9 11 13 13 12 12 12 15 18 18 18 19 19 19 18 17 20 22 23 24 24 23 24 29 31 30 26 23
23 20 18 19 19 18 18 17 17 16 15 12 12 11 11 10 10 9 7 7 7 7 7 6 6 6 7 9 10 10 10 9 9 8 6 4 3 2 3 3 3 3 3 4 4 4 4 3 4 6 7 6 6 7 8 9 9 10 11 12 11 11 11 11 10 12 13 12 12 13 13 12 11 13 15 17 20 23 25 24 24 27 31 32 29
21 20 20 22 21 20 20 18 15 14 13 12 11 10 9 9 10 9 8 7 7 6 6 6 5 5 6 7 8 9 9 7 6 5 4 2 2 2 2 2 2 3 3 4 4 4 4 4 5 5 5 5 6 7 7 6 6 5 4 4 6 7 8 8 5 5 6 6 7 8 9 9 10 11 12 12 13 15 20 23 22 23 26 29 30
19 21 22 22 21 20 19 16 14 13 12 12 12 11 11 10 10 9 8 7 6 5 5 4 4 4 4 4 5 5 5 4 3 3 2 1 0 2 2 1 2 2 3 4 4 4 4 4 5 5 5 6 6 5 4 4 4 3 2 4 5 5 5 5 3 2 3 4 5 7 7 7 8 9 10 9 9 9 12 17 21 21 22 24 26
20 21 22 21 19 18 17 15 14 13 12 12 12 12 12 11 9 8 7 6 5 5 4 3 3 3 3 3 2 2 1 2 2 2 2 1 1 1 1 2 3 4 3 4 5 5 5 5 6 6 6 7 7 6 6 6 7 7 7 7 7 5 3 3 3 4 5 6 7 7 7 7 8 7 6 6 8 8 9 12 15 16 17 19 21
21 21 21 20 18 16 15 14 13 13 12 12 12 12 12 11 9 7 6 5 4 4 3 3 3 3 3 2 2 1 0 1 2 2 2 1 2 2 3 3 4 4 4 5 6 6 6 6 7 7 8 9 10 11 11 11 11 11 11 11 10 8 6 5 5 6 9 10 10 10 10 9 8 8 9 10 12 11 10 9 10 11 12 13 14
20 20 19 18 17 15 14 13 12 12 11 10 10 11 11 11 10 8 6 4 4 3 3 3 3 3 3 3 2 1 2 2 2 2 2 1 1 2 3 3 5 5 5 5 5 5 5 6 7 8 9 9 10 11 11 12 12 12 12 11 11 9 8 7 7 8 9 9 9 10 10 10 10 11 12 12 12 12 11 10 9 10 11 10 11
19 19 18 17 16 14 13 12 12 11 11 10 9 9 9 9 9 8 6 5 4 3 3 3 3 3 3 3 3 3 3 3 3 2 2 2 3 4 3 4 5 5 5 5 5 6 7 7 8 9 9 9 9 9 9 10 11 11 11 10 10 10 9 8 8 8 8 7 7 7 8 8 9 10 10 9 9 10 8 7 7 9 9 8 10
18 18 17 15 13 12 12 12 10 9 11 11 10 9 8 8 8 7 6 5 5 4 3 2 2 4 5 5 4 4 4 3 3 2 3 4 5 5 4 4 4 5 5 6 7 8 9 9 9 9 9 9 9 9 9 8 9 10 11 10 9 8 7 5 5 6 5 5 5 6 6 6 6 6 6 7 7 7 6 6 7 8 8 9 11
16 15 13 10 9 9 9 8 6 6 8 9 10 9 8 7 7 6 5 5 4 4 3 4 6 7 7 5 3 4 4 3 3 5 6 6 6 5 5 6 8 9 10 9 10 10 9 8 8 8 7 8 8 9 9 8 8 8 8 7 6 6 4 4 3 3 3 3 3 4 4 4 4 4 4 5 5 4 4 5 6 6 7 10 12
13 10 8 8 8 8 7 5 5 6 5 6 9 9 7 6 5 5 6 6 4 3 4 6 5 2 2 3 3 3 4 4 5 6 7 6 6 7 8 9 8 7 6 6 6 7 8 7 7 6 6 7 8 8 7 7 7 6 5 3 3 3 2 2 2 1 1 1 2 2 2 3 3 3 3 4 4 4 4 5 5 5 7 9 10
13 10 8 7 7 8 6 5 6 6 4 5 6 7 6 5 4 5 8 8 6 4 3 3 2 1 1 1 2 3 4 4 4 5 6 6 8 8 7 5 3 5 5 4 4 6 7 7 8 7 6 7 7 7 6 6 6 5 3 3 3 2 2 2 2 2 1 1 1 2 1 2 2 3 3 3 3 4 5 5 6 6 7 8 9
15 14 11 7 6 6 6 5 5 5 4 5 6 6 6 5 3 4 6 7 7 7 7 7 8 9 8 7 5 5 4 3 4 7 8 7 6 4 3 3 6 8 7 5 5 7 8 8 8 9 8 7 7 6 6 6 6 5 5 5 4 3 4 5 4 2 0 1 1 2 2 3 2 3 3 3 4 4 5 6 6 6 7 8 9
15 14 12 9 7 5 5 5 4 4 4 6 6 6 5 5 5 5 6 5 5 6 8 9 10 10 11 10 9 8 7 6 7 8 7 5 4 4 5 5 8 11 10 7 6 8 9 9 9 9 8 8 7 7 6 6 6 6 5 5 4 5 6 5 3 1 1 0 1 1 2 2 2 2 3 3 3 4 5 5 6 6 7 7 8
13 12 12 11 10 8 5 5 5 6 6 6 5 4 5 5 5 5 5 5 5 6 7 8 7 8 8 8 8 9 9 9 9 7 4 4 7 8 7 6 7 7 6 5 4 5 6 6 7 7 6 6 6 6 6 6 6 5 5 5 4 4 4 3 2 2 1 1 1 1 1 1 1 2 3 3 3 4 5 5 5 5 6 6 7
10 10 10 11 11 10 7 7 8 9 9 8 7 7 8 8 7 6 4 5 5 6 7 8 7 7 7 7 8 8 9 8 7 5 4 5 9 9 7 5 4 3 2 2 2 3 4 4 5 5 5 5 4 4 5 5 4 4 4 4 4 4 3 3 2 1 1 1 1 1 1 1 1 1 2 3 4 4 4 4 5 5 5 5 6
8 9 9 10 12 12 11 12 13 13 12 12 11 11 10 9 8 7 5 5 5 5 6 7 7 6 6 7 7 8 8 8 7 6 5 7 9 8 5 2 3 3 3 3 3 3 4 4 4 4 5 5 4 4 4 4 3 3 3 3 3 3 3 3 3 2 1 1 1 0 0 1 1 1 2 4 4 4 4 4 4 5 5 5 6
8 9 9 11 13 14 14 14 14 14 14 13 12 11 10 9 7 6 5 5 6 6 5 6 6 5 4 6 7 7 7 7 6 5 6 6 6 5 3 2 3 3 4 4 3 3 4 4 4 4 4 4 4 4 4 3 3 3 3 3 3 3 3 3 3 2 2 1 1 1 1 1 1 1 2 3 3 3 3 3 4 5 5 5 6
11 12 12 13 14 14 14 14 14 13 13 12 11 12 11 8 5 5 6 6 6 6 6 6 6 6 6 6 7 6 6 5 4 3 3 3 3 3 2 3 3 4 4 4 3 4 4 4 4 4 4 4 4 4 4 4 4 4 4 4 4 4 3 3 2 2 2 2 1 1 1 1 1 1 1 2 3 3 3 3 4 5 6 6 7
14 14 15 16 15 14 14 14 14 13 12 11 10 10 10 8 5 5 6 6 6 7 7 7 7 7 7 7 6 4 4 4 4 3 3 3 3 3 3 3 4 4 4 4 4 4 4 4 4 4 4 4 4 4 4 4 4 5 5 5 4 4 3 3 3 2 3 3 2 2 2 2 1 1 2 3 3 3 4 5 5 6 6 7 8
16 16 18 18 17 15 14 14 14 13 12 11 10 10 10 9 7 6 6 6 6 6 7 8 9 9 9 8 7 5 5 5 4 4 4 5 5 4 4 4 4 4 4 4 4 4 4 4 4 4 5 6 6 5 6 6 6 6 5 5 4 4 4 4 4 4 4 3 3 3 3 2 2 3 3 4 4 4 5 5 6 7 8 8 8
18 18 19 19 18 16 14 13 12 12 12 13 13 13 12 10 8 7 7 7 7 6 6 8 10 11 10 9 7 7 7 6 5 5 6 6 6 5 4 4 5 5 5 4 4 3 4 5 5 5 5 6 7 8 8 8 7 6 5 5 5 4 4 4 5 5 5 5 5 5 5 4 4 4 4 5 5 5 6 6 6 7 8 8 7
19 18 19 20 19 16 14 13 12 12 13 14 14 14 13 12 11 10 10 11 10 8 7 6 7 8 9 8 8 9 8 6 6 8 8 7 7 6 4 4 5 6 6 6 5 5 6 6 5 5 6 7 8 8 8 8 7 6 5 5 5 5 5 5 5 6 6 6 6 6 6 6 5 4 4 5 5 5 5 5 5 5 6 6 6
18 19 20 20 18 16 15 15 15 14 14 15 15 15 15 16 14 13 12 12 12 9 7 6 6 6 6 7 9 10 9 6 7 9 9 8 8 6 4 4 6 8 8 7 7 7 8 8 8 7 8 8 9 9 8 8 8 7 6 5 5 6 6 6 6 7 8 7 6 6 6 6 5 4 3 3 3 4 4 4 4 5 5 5 5
18 18 19 18 17 16 15 14 14 14 15 15 15 14 13 14 14 14 13 11 9 8 7 6 7 7 7 6 7 10 9 7 8 10 10 9 9 7 4 5 8 9 9 8 8 8 9 10 10 9 10 10 10 9 9 8 8 7 7 7 6 6 6 7 8 7 7 7 6 5 4 4 4 3 2 2 3 4 4 4 4 6 6 6 6
17 18 18 17 17 17 15 14 14 14 14 14 14 12 10 10 11 14 15 13 11 10 9 7 7 8 9 8 8 10 11 10 10 11 11 10 10 8 6 7 9 10 9 9 9 9 10 10 10 10 11 10 10 9 9 8 8 7 8 8 7 7 7 7 6 5 5 5 5 5 4 4 3 3 4 4 4 4 6 7 7 8 8 8 7
18 18 18 17 17 17 17 16 15 14 15 15 16 15 14 12 11 13 14 14 14 14 13 11 8 8 9 10 11 12 12 11 10 11 12 11 10 10 9 9 10 10 10 10 10 10 11 11 11 11 11 10 10 9 8 8 8 8 7 7 7 7 7 6 5 5 5 5 5 5 5 4 3 3 4 5 5 5 7 8 8 9 9 9 9
17 18 17 17 17 17 17 16 15 14 14 15 15 16 16 15 14 13 13 13 13 14 15 14 12 11 11 12 13 13 13 12 11 12 13 12 11 11 11 10 10 10 11 11 11 11 11 12 11 11 11 10 9 9 8 8 8 8 8 8 8 7 7 7 6 5 5 5 5 5 5 4 4 4 5 7 6 6 6 7 7 7 8 9 9
18 18 17 16 16 16 15 15 14 14 14 14 15 15 14 14 13 13 12 13 13 13 13 13 13 12 13 14 14 14 14 14 13 13 13 12 11 11 11 11 11 11 12 12 12 12 12 13 12 12 11 10 9 9 8 8 8 8 9 9 8 8 8 7 7 6 6 6 5 5 5 5 5 6 7 7 7 7 8 8 9 9 9 10 11
17 17 17 16 17 16 16 15 16 16 16 16 16 15 14 13 11 9 10 12 14 13 13 14 14 14 14 15 15 15 14 14 14 14 13 13 12 12 12 12 12 12 13 13 14 14 14 14 13 12 11 11 10 9 8 8 9 9 10 10 9 9 8 8 7 7 6 6 6 5 6 6 6 7 8 8 8 9 10 9 10 11 11 11 12
16 16 16 17 17 16 15 16 16 16 16 16 16 16 15 14 11 9 10 12 13 12 12 13 14 14 15 15 15 15 15 15 15 14 14 13 13 13 13 13 13 12 13 14 15 15 15 15 14 13 12 11 10 9 9 9 10 10 11 10 10 10 9 8 8 7 7 7 7 7 7 8 8 9 9 9 9 10 11 11 12 13 12 11 11
Wind_Direction
353 351 350 350 352 354 355 357 1 4 8 10 8 358 343 324 302 286 275 266 261 258 253 248 247 247 245 244 242 241 240 239 238 236 235 234 232 233 233 230 229 229 227 227 231 233 232 231 232 231 228 226 225 223 224 225 225 225 223 224 228 228 229 233 243 255 250 245 238 216 216 226 228 229 231 229 231 233 230 226 227 229 231 232 233
348 347 346 347 348 350 353 356 359 2 8 13 16 16 12 3 343 317 296 281 270 264 258 253 251 249 246 244 243 242 242 241 240 236 235 234 233 234 233 231 231 230 227 226 230 235 237 236 236 235 233 233 232 230 230 229 229 229 225 222 225 226 224 228 236 248 248 238 230 221 222 227 228 229 230 229 231 231 227 224 225 229 231 228 226
345 344 343 343 345 347 349 354 358 2 5 8 11 13 16 15 10 1 341 313 290 273 263 257 257 255 251 248 247 246 245 243 241 238 237 236 234 234 234 234 234 231 229 230 230 233 238 239 238 237 235 236 236 235 234 233 232 232 230 226 225 225 223 225 230 238 245 242 237 228 222 224 225 227 229 229 228 226 222 222 224 226 227 223 218
343 343 341 340 343 345 348 350 354 359 2 3 5 7 9 12 13 13 9 356 337 305 280 266 260 257 253 250 250 250 249 247 244 243 242 241 238 236 237 238 237 236 235 236 235 235 238 239 239 237 236 237 237 235 234 233 231 232 233 229 226 226 224 223 227 233 241 244 243 237 223 218 221 223 224 225 222 220 218 219 222 222 222 221 217
342 342 340 339 340 343 346 348 350 353 354 356 359 1 3 5 6 9 11 9 3 352 329 296 274 263 257 254 251 250 251 250 250 248 247 245 242 239 239 240 240 239 239 239 239 238 240 241 240 239 237 237 236 234 232 232 232 231 233 231 227 225 223 223 226 230 234 238 241 239 225 214 216 214 216 219 215 213 215 216 218 219 220 221 220
339 340 339 338 338 339 343 346 347 348 349 350 352 354 357 358 358 360 2 3 2 1 0 345 312 283 266 259 253 250 249 249 249 249 247 246 244 241 240 240 240 240 241 241 241 241 242 243 242 241 239 237 235 234 232 232 232 231 231 231 229 226 223 223 224 225 229 234 236 234 223 211 209 205 211 216 211 207 209 210 217 220 219 221 223
335 336 336 336 335 336 339 341 342 344 346 347 348 350 354 356 356 356 355 354 353 352 354 354 347 330 298 271 257 251 249 247 248 249 246 245 245 243 241 242 243 243 243 243 244 244 244 244 243 242 239 236 234 234 233 232 231 231 231 230 228 227 225 222 221 220 224 229 231 231 226 215 211 209 208 209 209 211 208 203 210 218 219 221 221
333 332 333 333 333 333 334 334 336 340 342 345 346 347 350 352 353 354 353 351 349 347 344 342 341 339 327 307 283 264 255 251 250 250 248 248 248 248 246 245 245 244 244 246 246 246 245 244 245 244 240 237 236 235 233 232 230 229 231 230 227 226 224 218 216 217 220 224 226 227 226 219 214 209 198 194 201 211 211 206 209 212 214 221 223
328 329 331 330 328 329 331 331 332 334 337 340 342 343 345 346 347 348 348 349 348 345 343 337 332 329 324 317 306 289 272 260 255 253 252 251 250 250 248 246 246 245 246 248 247 247 246 246 246 244 241 239 239 239 238 236 232 230 229 228 225 223 222 217 214 215 217 220 223 223 223 221 214 204 195 195 201 207 206 207 214 213 211 221 228
323 326 327 326 326 326 327 329 331 333 335 337 338 340 340 340 341 341 340 341 341 339 339 336 331 325 320 316 308 300 289 276 270 267 263 260 256 254 251 250 250 250 250 250 249 249 249 247 246 244 242 242 242 242 242 240 237 235 234 232 227 222 219 215 212 214 214 217 220 218 218 220 216 209 206 207 206 205 202 205 214 216 211 218 229
320 323 324 323 324 324 324 327 328 330 333 335 336 337 337 337 336 335 335 335 335 337 337 333 330 326 322 317 310 304 296 287 283 281 277 273 268 264 261 258 256 255 253 251 250 251 251 249 247 245 244 243 243 243 243 242 241 240 239 239 236 230 225 219 214 212 211 217 220 215 215 220 219 215 214 211 204 203 207 212 215 215 210 215 228
317 321 323 321 320 321 322 324 325 326 329 331 333 333 333 334 332 330 330 330 331 332 331 328 326 325 322 316 310 306 300 297 297 295 293 288 276 268 267 266 261 257 254 253 250 249 251 251 249 248 246 244 243 242 243 243 243 242 241 241 240 239 235 231 227 220 213 216 218 216 219 221 218 214 212 207 205 208 214 218 219 216 213 222 231
313 318 320 318 316 316 318 319 320 321 323 324 327 328 329 330 329 327 326 325 325 325 324 323 321 319 317 314 311 304 309 335 338 330 324 300 270 257 255 254 253 251 249 250 247 245 248 250 248 248 246 244 242 241 241 241 241 241 241 241 240 240 238 237 237 234 231 227 223 221 223 221 218 220 220 218 217 216 218 219 219 218 219 226 233
307 312 316 315 312 311 315 316 314 315 317 319 320 322 323 323 323 323 322 321 320 318 317 316 314 314 313 310 309 303 326 17 12 14 22 304 272 260 252 241 237 241 242 242 243 243 242 243 244 245 244 240 239 240 239 238 238 236 235 236 237 237 237 236 235 236 237 236 234 234 234 232 231 233 234 232 228 225 224 222 221 222 224 228 235
305 308 310 311 309 310 313 312 310 310 311 312 314 315 316 317 318 318 316 314 313 310 309 307 304 304 300 291 287 274 228 50 27 25 26 310 292 279 266 246 227 231 238 235 236 237 235 235 236 239 240 238 237 238 237 234 233 232 229 230 232 233 235 235 233 231 232 235 238 239 240 241 241 242 243 240 237 236 236 234 233 231 229 231 235
303 306 306 304 303 305 309 309 307 306 305 304 306 308 309 311 313 313 310 307 305 300 296 293 288 284 280 269 254 238 205 108 35 29 37 324 314 335 338 271 178 190 207 216 224 226 226 225 226 229 232 233 232 235 236 234 232 229 228 229 230 230 233 236 236 234 232 234 238 240 243 246 247 247 247 246 245 242 236 233 233 229 226 230 236
302 307 304 300 296 298 304 303 302 304 302 299 299 299 301 305 307 308 306 304 301 297 291 285 277 269 265 258 241 233 216 179 50 29 37 7 330 16 64 71 81 126 140 140 157 181 199 208 214 223 227 227 227 227 227 230 232 230 228 229 231 230 232 236 238 237 236 238 240 242 246 247 245 244 244 242 244 241 230 223 219 213 217 228 237
304 307 302 298 295 294 299 301 301 302 300 297 297 295 295 299 301 302 302 299 297 295 290 283 276 266 259 252 238 235 231 211 201 25 33 27 335 344 29 60 54 65 118 25 64 109 160 184 195 209 217 222 221 217 217 226 232 232 230 230 231 230 231 235 240 242 241 240 242 244 246 246 242 239 237 234 234 233 229 226 218 206 215 228 234
308 305 298 297 298 298 301 302 300 299 297 296 295 293 290 291 295 297 297 293 291 291 286 276 269 261 256 255 248 246 249 238 231 255 4 15 347 323 331 334 300 296 293 295 313 299 276 274 256 230 220 222 224 222 225 232 237 238 236 234 233 233 233 238 246 249 248 247 247 245 245 248 246 242 238 234 229 228 231 233 226 212 215 225 228
308 300 295 298 300 300 302 302 299 297 297 296 294 291 287 283 287 292 291 286 284 284 280 272 266 262 261 261 261 261 261 260 255 255 276 325 336 305 288 290 281 276 275 272 278 280 273 273 270 255 241 232 240 255 254 249 250 250 242 235 233 237 240 243 249 255 257 256 255 253 251 251 254 253 250 245 238 233 232 233 229 222 220 225 227
305 297 295 299 299 299 301 302 300 298 297 296 293 291 286 280 282 288 287 283 281 278 276 273 270 268 268 266 267 269 267 266 267 264 265 285 314 297 271 279 277 265 266 266 261 266 266 263 266 263 252 245 252 263 265 262 263 260 249 243 244 248 246 243 247 254 257 255 255 256 254 251 252 255 256 256 253 248 242 237 233 229 227 228 229
303 298 298 299 299 301 304 303 300 297 296 295 292 290 286 279 280 283 282 282 282 278 273 269 268 270 272 271 270 272 273 273 275 271 262 271 324 324 270 275 276 247 246 262 261 264 270 268 270 270 262 258 263 268 268 266 266 266 262 255 252 251 245 239 238 242 244 242 241 242 242 241 241 246 251 255 256 255 253 249 243 236 234 235 235
302 301 301 299 299 303 305 304 300 296 294 292 289 286 282 277 277 276 276 278 281 276 266 261 262 265 269 271 271 272 274 275 278 280 264 248 340 344 294 273 270 235 234 257 263 265 272 275 279 281 274 274 281 280 275 267 261 265 259 235 231 241 247 246 237 222 222 223 223 225 228 234 240 245 249 251 254 259 260 257 254 248 243 241 239
299 301 299 297 299 303 304 302 299 295 293 292 289 285 280 277 273 269 267 268 266 262 255 245 242 248 252 256 259 263 268 267 270 288 283 230 284 348 337 299 266 247 250 262 265 266 270 274 285 293 290 289 289 276 244 221 218 218 207 214 232 245 247 244 238 221 216 221 227 232 233 234 242 249 253 253 252 257 264 264 263 259 253 247 243
300 301 297 295 299 301 300 300 298 295 292 290 288 286 283 279 274 265 262 258 250 248 245 230 229 240 241 238 229 217 234 253 257 280 291 246 229 292 294 252 247 253 260 260 256 257 266 278 284 279 272 274 275 267 253 246 249 254 258 262 267 270 263 249 238 236 242 242 240 239 236 236 241 241 241 250 256 259 264 268 269 267 263 260 255
302 300 296 295 298 300 299 298 297 297 294 289 286 285 283 281 276 268 262 254 242 238 235 224 220 223 217 209 204 189 254 279 266 261 260 242 224 228 231 242 251 254 253 253 253 254 258 264 266 262 260 265 268 271 274 275 275 278 280 281 281 278 273 264 250 245 251 252 250 249 247 245 243 238 240 252 260 262 262 262 262 263 264 264 261
301 298 293 293 297 299 298 297 297 298 297 292 287 283 279 275 272 267 261 250 236 227 224 219 210 204 202 204 214 250 276 272 255 232 224 224 237 233 232 255 263 255 249 250 251 251 253 256 261 264 266 270 272 273 276 278 280 283 284 284 282 277 270 263 256 254 257 256 254 254 253 251 250 251 254 258 259 259 260 260 260 262 262 259 257
300 296 290 290 294 296 296 298 298 297 296 297 293 284 276 270 264 257 246 234 230 225 221 216 206 205 223 238 247 258 258 245 231 223 221 253 276 268 251 250 251 243 240 241 244 254 265 272 275 273 271 272 272 271 272 274 277 279 280 281 282 279 275 270 265 260 258 256 255 257 254 252 255 257 258 258 257 257 260 264 266 267 268 267 263
299 293 288 287 288 290 294 297 298 296 297 301 299 289 278 266 255 249 243 240 236 220 202 211 243 257 265 269 257 245 242 235 234 248 273 289 288 271 245 246 260 259 256 254 255 262 267 268 266 264 262 261 260 259 260 263 268 273 276 278 279 280 276 268 262 259 256 253 254 255 252 251 253 253 251 252 255 255 258 264 267 268 268 266 265
294 288 283 278 277 285 290 291 292 292 295 300 301 299 292 272 252 245 251 256 240 205 214 268 282 272 264 255 236 230 234 241 263 275 285 294 288 262 257 279 287 280 273 268 263 259 256 253 251 249 248 250 252 254 257 259 261 266 271 272 272 272 267 257 253 254 251 246 247 247 246 249 249 246 246 251 253 253 258 263 265 264 262 261 262
285 277 274 269 270 280 281 278 286 288 286 292 295 299 303 291 259 235 238 247 236 219 257 287 298 282 228 216 225 244 251 263 283 288 288 288 278 272 286 299 292 271 256 253 248 244 245 249 250 245 242 248 251 252 255 259 260 259 257 257 256 248 233 226 218 202 208 221 227 228 233 243 250 251 251 254 256 258 262 262 260 260 259 259 261
279 272 273 268 271 277 274 273 287 285 278 283 286 289 297 300 274 232 232 238 234 225 248 275 259 196 202 242 270 281 276 279 292 278 264 272 283 286 293 294 242 212 216 235 244 244 246 251 254 252 247 248 249 247 248 253 255 251 247 248 243 211 183 214 230 223 212 226 235 246 258 260 260 261 261 264 269 268 266 265 263 263 264 264 266
282 276 275 271 269 272 267 269 278 276 273 277 277 278 281 283 278 259 254 256 248 233 231 238 238 238 246 254 265 277 282 297 296 267 260 280 302 289 258 239 237 242 256 273 271 262 258 254 253 253 251 249 246 242 241 242 242 244 250 251 245 235 239 253 263 267 251 233 248 264 276 276 272 271 267 265 266 266 266 268 267 266 267 267 267
287 278 275 273 270 266 266 271 271 270 278 278 274 275 271 266 274 279 277 282 275 248 241 247 249 250 253 254 255 257 258 269 277 270 272 303 304 247 228 253 268 271 275 277 268 263 263 259 255 252 249 246 243 238 237 239 237 238 242 237 230 239 250 258 262 234 186 228 270 270 275 272 270 275 272 267 266 267 267 269 269 269 271 272 272
290 284 282 280 277 271 271 276 276 279 284 278 266 264 266 267 272 272 269 276 281 273 270 267 261 260 262 259 258 261 265 271 278 284 309 321 290 269 264 271 275 279 282 274 256 255 258 257 256 253 244 239 238 234 233 234 231 229 231 223 213 222 232 226 203 188 211 270 277 271 282 276 274 281 278 273 272 273 272 273 273 273 277 278 278
298 294 291 287 283 278 275 279 282 284 284 280 272 270 272 274 273 267 265 267 265 269 279 279 272 267 269 271 273 275 276 278 282 295 318 299 281 280 284 279 267 269 269 246 231 239 247 247 249 247 239 234 235 231 228 228 221 214 216 209 196 195 201 204 208 203 204 232 216 100 70 271 279 300 287 276 273 268 265 270 274 274 278 281 282
309 303 298 294 292 288 284 284 285 285 283 280 276 272 271 272 271 266 261 256 250 254 268 275 276 274 273 277 279 277 275 275 272 272 277 277 279 287 293 276 261 262 253 241 233 239 246 243 236 236 235 232 231 230 224 216 203 190 185 184 182 182 182 187 194 189 179 187 182 118 239 258 282 296 277 271 272 267 262 269 274 272 275 281 282
321 317 312 307 302 295 288 286 286 285 282 275 269 267 267 269 268 260 251 244 244 247 249 252 257 255 254 269 279 281 282 282 277 272 276 281 288 294 283 250 251 250 243 244 240 236 243 241 228 225 230 225 224 223 211 195 188 181 172 166 165 163 166 179 198 209 206 203 197 194 237 260 280 285 268 263 267 269 270 275 279 278 278 280 278
326 325 325 322 313 299 290 286 283 281 277 270 264 264 267 268 262 254 253 250 244 241 235 231 236 239 242 257 273 280 283 281 270 267 280 287 287 277 253 246 250 243 238 241 236 232 241 238 219 216 222 216 207 204 196 188 184 178 171 172 177 178 181 193 203 199 197 207 211 207 224 243 250 260 267 262 262 271 277 279 280 281 279 278 279
319 320 324 325 318 305 293 286 282 278 274 268 264 265 267 268 262 254 256 255 250 248 244 239 238 246 256 264 266 259 254 256 252 249 264 276 272 262 248 243 242 239 241 246 239 232 233 227 212 209 208 200 194 193 190 185 179 175 175 182 189 193 197 202 205 209 212 219 222 213 210 223 235 251 265 267 268 277 281 281 282 283 278 276 279
312 314 318 321 319 310 297 286 281 278 273 267 263 263 266 269 269 260 256 256 256 258 259 257 259 265 269 270 261 243 236 245 250 248 257 266 266 259 249 242 239 239 240 243 241 234 225 214 206 200 197 196 196 197 195 191 182 177 182 190 192 200 212 213 213 216 216 215 216 216 222 241 258 260 266 272 276 279 282 282 282 283 280 278 277
307 308 312 316 316 308 297 287 282 280 276 271 267 265 266 269 271 270 267 265 263 259 258 262 270 275 274 268 254 239 235 241 243 246 256 264 263 256 249 243 240 239 238 240 241 232 219 210 200 192 195 202 202 199 196 193 188 185 191 197 196 201 212 217 220 224 223 223 227 232 238 251 263 266 273 279 282 283 285 285 285 284 283 280 278
303 304 307 311 309 303 295 290 285 280 275 271 269 268 269 273 277 278 276 273 268 262 258 256 264 271 273 269 255 240 234 236 242 251 258 262 258 254 251 243 241 241 242 245 243 230 218 208 199 197 205 207 203 197 192 192 195 197 198 202 209 215 218 221 225 230 232 231 234 241 247 253 259 264 271 276 280 280 278 279 282 281 278 279 278
302 303 305 306 304 300 296 292 287 281 276 273 272 272 273 276 278 278 276 273 268 263 258 252 251 257 265 266 258 249 240 232 240 253 261 261 254 249 243 237 239 240 242 244 240 224 214 211 210 212 213 207 202 201 201 205 211 212 208 212 223 231 233 234 234 237 239 236 232 237 244 247 252 259 263 264 268 273 274 274 277 278 278 279 278
304 303 302 302 300 297 296 293 290 287 283 279 276 274 274 275 276 276 274 270 265 260 257 254 257 260 260 258 257 254 250 246 251 260 264 260 250 243 234 234 239 239 238 239 234 219 212 213 213 211 208 204 204 207 212 217 223 226 229 233 234 232 234 237 237 238 237 229 219 216 221 225 232 241 243 247 262 270 273 273 276 280 281 279 275
304 301 299 298 296 294 293 291 291 291 287 281 276 273 272 272 274 275 274 271 265 263 262 258 258 263 263 260 258 260 260 259 260 263 263 259 250 242 236 237 238 235 233 234 229 217 210 210 209 207 206 205 207 211 217 226 233 241 246 246 236 225 224 227 226 222 214 204 197 196 199 207 217 231 247 260 267 270 274 279 282 284 283 279 275
304 302 300 296 294 294 293 290 288 287 285 281 277 273 271 271 272 274 276 274 270 267 266 262 258 260 261 261 263 264 263 260 258 260 260 257 249 240 235 236 235 232 231 230 225 217 211 208 207 206 207 209 212 217 225 235 245 248 246 237 223 215 214 210 202 194 188 186 189 194 201 209 220 238 259 269 270 271 278 282 282 282 282 280 278
303 303 300 296 294 292 290 288 286 284 281 279 278 275 272 271 271 271 273 274 273 270 267 265 262 261 262 264 265 265 263 259 256 258 258 255 247 238 233 232 232 230 228 225 221 217 213 210 208 208 210 214 219 225 233 243 247 242 230 216 207 205 202 194 189 188 187 192 200 205 214 229 242 252 267 275 278 278 280 281 280 281 281 279 277
305 303 299 296 294 290 286 284 282 279 277 277 276 275 273 272 271 270 270 271 271 269 267 265 263 263 264 266 266 266 264 260 256 256 256 253 246 236 229 228 229 229 226 223 220 217 213 211 210 211 214 219 225 232 240 245 241 227 213 204 201 200 196 192 194 198 201 206 214 221 234 251 263 268 274 280 282 281 282 284 284 285 283 279 277
308 306 302 299 296 292 289 286 282 279 279 279 276 276 276 274 271 269 268 269 271 270 268 268 269 268 268 269 268 266 264 260 257 257 256 251 243 233 227 226 228 228 225 221 218 215 212 210 210 212 217 222 229 236 241 239 229 217 207 201 199 198 197 197 203 208 212 219 232 243 253 264 271 275 278 281 283 284 285 287 287 286 284 281 280
311 310 308 306 303 297 293 291 286 283 284 282 279 278 279 277 274 271 270 271 273 273 272 274 276 275 273 272 270 266 263 260 257 256 254 248 241 233 227 224 226 226 223 217 213 210 208 208 210 214 218 223 230 237 237 229 219 212 207 202 200 200 201 204 209 217 224 234 244 253 262 268 273 275 277 279 281 284 286 287 288 289 286 281 279